Data supplied by UK-AIR on 9/6/2008
All Data GMT hour ending 
Status: R =Ratified P=Provisional,P*=As supplied
,,Ladybower,,,,,,,,,,,,,,,,,,,,,,,
Date,time,"Nitric oxide",status,unit,"Nitrogen dioxide",status,unit,"Nitrogen oxides as nitrogen dioxide",status,unit,"Ozone",status,unit,"Sulphur dioxide",status,unit
 
01-01-2006,01:00,,,,,,,,,,,,,,,
01-01-2006,02:00,0.4,R,ugm-3,2.7,R,ugm-3,3.2,R,ugm-3,36,R,ugm-3,2.4,R,ugm-3
01-01-2006,03:00,0.6,R,ugm-3,3.2,R,ugm-3,4.2,R,ugm-3,32,R,ugm-3,3.5,R,ugm-3
01-01-2006,04:00,0.5,R,ugm-3,0.8,R,ugm-3,1.5,R,ugm-3,38,R,ugm-3,2.7,R,ugm-3
01-01-2006,05:00,0.5,R,ugm-3,1.0,R,ugm-3,1.7,R,ugm-3,40,R,ugm-3,2.1,R,ugm-3
01-01-2006,06:00,0.5,R,ugm-3,0.2,R,ugm-3,1.0,R,ugm-3,42,R,ugm-3,2.4,R,ugm-3
01-01-2006,07:00,0.4,R,ugm-3,0.2,R,ugm-3,0.8,R,ugm-3,44,R,ugm-3,2.1,R,ugm-3
01-01-2006,08:00,0.6,R,ugm-3,0.0,R,ugm-3,1.0,R,ugm-3,40,R,ugm-3,2.1,R,ugm-3
01-01-2006,09:00,0.5,R,ugm-3,0.2,R,ugm-3,1.0,R,ugm-3,38,R,ugm-3,2.1,R,ugm-3
01-01-2006,10:00,0.4,R,ugm-3,0.6,R,ugm-3,1.1,R,ugm-3,34,R,ugm-3,2.1,R,ugm-3
01-01-2006,11:00,0.6,R,ugm-3,1.0,R,ugm-3,1.9,R,ugm-3,34,R,ugm-3,2.1,R,ugm-3
01-01-2006,12:00,0.6,R,ugm-3,0.2,R,ugm-3,1.1,R,ugm-3,36,R,ugm-3,2.1,R,ugm-3
01-01-2006,13:00,0.6,R,ugm-3,0.0,R,ugm-3,1.0,R,ugm-3,38,R,ugm-3,2.1,R,ugm-3
01-01-2006,14:00,0.6,R,ugm-3,0.4,R,ugm-3,1.3,R,ugm-3,38,R,ugm-3,2.1,R,ugm-3
01-01-2006,15:00,0.8,R,ugm-3,0.4,R,ugm-3,1.5,R,ugm-3,36,R,ugm-3,2.1,R,ugm-3
01-01-2006,16:00,0.6,R,ugm-3,1.7,R,ugm-3,2.7,R,ugm-3,36,R,ugm-3,2.1,R,ugm-3
01-01-2006,17:00,0.5,R,ugm-3,1.1,R,ugm-3,1.9,R,ugm-3,36,R,ugm-3,2.1,R,ugm-3
01-01-2006,18:00,0.5,R,ugm-3,0.4,R,ugm-3,1.1,R,ugm-3,34,R,ugm-3,1.9,R,ugm-3
01-01-2006,19:00,0.5,R,ugm-3,1.1,R,ugm-3,1.9,R,ugm-3,36,R,ugm-3,2.1,R,ugm-3
01-01-2006,20:00,0.6,R,ugm-3,0.8,R,ugm-3,1.7,R,ugm-3,34,R,ugm-3,1.3,R,ugm-3
01-01-2006,21:00,0.5,R,ugm-3,0.6,R,ugm-3,1.3,R,ugm-3,32,R,ugm-3,1.3,R,ugm-3
01-01-2006,22:00,0.6,R,ugm-3,0.2,R,ugm-3,1.1,R,ugm-3,30,R,ugm-3,0.8,R,ugm-3
01-01-2006,23:00,0.6,R,ugm-3,0.0,R,ugm-3,1.0,R,ugm-3,28,R,ugm-3,0.0,R,ugm-3
01-01-2006,24:00,0.6,R,ugm-3,0.0,R,ugm-3,1.0,R,ugm-3,24,R,ugm-3,0.0,R,ugm-3
02-01-2006,01:00,1.0,R,ugm-3,2.1,R,ugm-3,3.6,R,ugm-3,24,R,ugm-3,3.2,R,ugm-3
02-01-2006,02:00,1.0,R,ugm-3,2.1,R,ugm-3,3.6,R,ugm-3,22,R,ugm-3,4.3,R,ugm-3
02-01-2006,03:00,1.1,R,ugm-3,1.9,R,ugm-3,3.6,R,ugm-3,18,R,ugm-3,2.7,R,ugm-3
02-01-2006,04:00,1.1,R,ugm-3,1.9,R,ugm-3,3.6,R,ugm-3,16,R,ugm-3,3.2,R,ugm-3
02-01-2006,05:00,1.1,R,ugm-3,1.5,R,ugm-3,3.2,R,ugm-3,18,R,ugm-3,2.7,R,ugm-3
02-01-2006,06:00,1.1,R,ugm-3,1.7,R,ugm-3,3.4,R,ugm-3,16,R,ugm-3,2.7,R,ugm-3
02-01-2006,07:00,1.3,R,ugm-3,1.7,R,ugm-3,3.6,R,ugm-3,12,R,ugm-3,2.4,R,ugm-3
02-01-2006,08:00,1.1,R,ugm-3,1.7,R,ugm-3,3.4,R,ugm-3,14,R,ugm-3,2.9,R,ugm-3
02-01-2006,09:00,1.1,R,ugm-3,1.5,R,ugm-3,3.2,R,ugm-3,14,R,ugm-3,3.2,R,ugm-3
02-01-2006,10:00,1.1,R,ugm-3,1.9,R,ugm-3,3.6,R,ugm-3,16,R,ugm-3,2.1,R,ugm-3
02-01-2006,11:00,1.3,R,ugm-3,1.0,R,ugm-3,2.9,R,ugm-3,12,R,ugm-3,1.9,R,ugm-3
02-01-2006,12:00,1.6,R,ugm-3,2.1,R,ugm-3,4.6,R,ugm-3,16,R,ugm-3,4.0,R,ugm-3
02-01-2006,13:00,1.6,R,ugm-3,3.2,R,ugm-3,5.7,R,ugm-3,20,R,ugm-3,4.3,R,ugm-3
02-01-2006,14:00,2.3,R,ugm-3,8.0,R,ugm-3,11.5,R,ugm-3,22,R,ugm-3,9.3,R,ugm-3
02-01-2006,15:00,2.3,R,ugm-3,12.2,R,ugm-3,15.7,R,ugm-3,26,R,ugm-3,32.5,R,ugm-3
02-01-2006,16:00,1.1,R,ugm-3,9.6,R,ugm-3,11.3,R,ugm-3,22,R,ugm-3,10.1,R,ugm-3
02-01-2006,17:00,1.3,R,ugm-3,10.7,R,ugm-3,12.6,R,ugm-3,18,R,ugm-3,8.5,R,ugm-3
02-01-2006,18:00,0.8,R,ugm-3,13.4,R,ugm-3,14.5,R,ugm-3,12,R,ugm-3,7.2,R,ugm-3
02-01-2006,19:00,1.4,R,ugm-3,11.1,R,ugm-3,13.2,R,ugm-3,14,R,ugm-3,4.3,R,ugm-3
02-01-2006,20:00,1.8,R,ugm-3,13.6,R,ugm-3,16.2,R,ugm-3,8,R,ugm-3,4.8,R,ugm-3
02-01-2006,21:00,1.3,R,ugm-3,13.6,R,ugm-3,15.5,R,ugm-3,14,R,ugm-3,4.0,R,ugm-3
02-01-2006,22:00,1.6,R,ugm-3,8.8,R,ugm-3,11.3,R,ugm-3,12,R,ugm-3,3.5,R,ugm-3
02-01-2006,23:00,1.4,R,ugm-3,12.4,R,ugm-3,14.5,R,ugm-3,12,R,ugm-3,4.5,R,ugm-3
02-01-2006,24:00,1.6,R,ugm-3,13.4,R,ugm-3,15.9,R,ugm-3,12,R,ugm-3,5.3,R,ugm-3
03-01-2006,01:00,0.9,R,ugm-3,10.7,R,ugm-3,12.0,R,ugm-3,14,R,ugm-3,4.0,R,ugm-3
03-01-2006,02:00,1.0,R,ugm-3,6.1,R,ugm-3,7.6,R,ugm-3,22,R,ugm-3,3.2,R,ugm-3
03-01-2006,03:00,0.6,R,ugm-3,7.8,R,ugm-3,8.8,R,ugm-3,20,R,ugm-3,3.2,R,ugm-3
03-01-2006,04:00,0.8,R,ugm-3,6.9,R,ugm-3,8.0,R,ugm-3,26,R,ugm-3,2.9,R,ugm-3
03-01-2006,05:00,0.4,R,ugm-3,4.4,R,ugm-3,5.0,R,ugm-3,30,R,ugm-3,2.1,R,ugm-3
03-01-2006,06:00,0.5,R,ugm-3,0.6,R,ugm-3,1.3,R,ugm-3,40,R,ugm-3,3.2,R,ugm-3
03-01-2006,07:00,0.5,R,ugm-3,1.1,R,ugm-3,1.9,R,ugm-3,40,R,ugm-3,2.9,R,ugm-3
03-01-2006,08:00,0.6,R,ugm-3,5.9,R,ugm-3,6.9,R,ugm-3,28,R,ugm-3,3.2,R,ugm-3
03-01-2006,09:00,0.5,R,ugm-3,7.4,R,ugm-3,8.2,R,ugm-3,26,R,ugm-3,1.9,R,ugm-3
03-01-2006,10:00,1.1,R,ugm-3,5.3,R,ugm-3,7.1,R,ugm-3,30,R,ugm-3,5.3,R,ugm-3
03-01-2006,11:00,1.0,R,ugm-3,6.5,R,ugm-3,8.0,R,ugm-3,32,R,ugm-3,5.3,R,ugm-3
03-01-2006,12:00,1.9,R,ugm-3,12.2,R,ugm-3,15.1,R,ugm-3,24,R,ugm-3,3.2,R,ugm-3
03-01-2006,13:00,1.8,R,ugm-3,7.6,R,ugm-3,10.3,R,ugm-3,28,R,ugm-3,2.1,R,ugm-3
03-01-2006,14:00,1.9,R,ugm-3,9.6,R,ugm-3,12.4,R,ugm-3,32,R,ugm-3,2.1,R,ugm-3
03-01-2006,15:00,2.0,R,ugm-3,17.6,R,ugm-3,20.6,R,ugm-3,26,R,ugm-3,2.4,R,ugm-3
03-01-2006,16:00,1.3,R,ugm-3,11.3,R,ugm-3,13.2,R,ugm-3,22,R,ugm-3,2.1,R,ugm-3
03-01-2006,17:00,0.6,R,ugm-3,7.6,R,ugm-3,8.6,R,ugm-3,22,R,ugm-3,2.9,R,ugm-3
03-01-2006,18:00,0.6,R,ugm-3,11.8,R,ugm-3,12.8,R,ugm-3,26,R,ugm-3,3.2,R,ugm-3
03-01-2006,19:00,0.6,R,ugm-3,12.4,R,ugm-3,13.4,R,ugm-3,26,R,ugm-3,1.9,R,ugm-3
03-01-2006,20:00,0.6,R,ugm-3,15.1,R,ugm-3,16.0,R,ugm-3,22,R,ugm-3,2.1,R,ugm-3
03-01-2006,21:00,0.6,R,ugm-3,18.5,R,ugm-3,19.5,R,ugm-3,20,R,ugm-3,5.1,R,ugm-3
03-01-2006,22:00,0.8,R,ugm-3,23.3,R,ugm-3,24.4,R,ugm-3,20,R,ugm-3,11.4,R,ugm-3
03-01-2006,23:00,1.0,R,ugm-3,32.7,R,ugm-3,34.2,R,ugm-3,16,R,ugm-3,24.7,R,ugm-3
03-01-2006,24:00,0.6,R,ugm-3,16.6,R,ugm-3,17.6,R,ugm-3,28,R,ugm-3,12.5,R,ugm-3
04-01-2006,01:00,0.4,R,ugm-3,12.6,R,ugm-3,13.2,R,ugm-3,30,R,ugm-3,10.4,R,ugm-3
04-01-2006,02:00,0.6,R,ugm-3,12.6,R,ugm-3,13.6,R,ugm-3,30,R,ugm-3,11.2,R,ugm-3
04-01-2006,03:00,0.6,R,ugm-3,3.6,R,ugm-3,4.6,R,ugm-3,40,R,ugm-3,4.0,R,ugm-3
04-01-2006,04:00,0.6,R,ugm-3,8.6,R,ugm-3,9.6,R,ugm-3,36,R,ugm-3,7.7,R,ugm-3
04-01-2006,05:00,0.6,R,ugm-3,5.0,R,ugm-3,5.9,R,ugm-3,38,R,ugm-3,4.3,R,ugm-3
04-01-2006,06:00,0.6,R,ugm-3,13.4,R,ugm-3,14.3,R,ugm-3,32,R,ugm-3,5.3,R,ugm-3
04-01-2006,07:00,0.6,R,ugm-3,15.7,R,ugm-3,16.6,R,ugm-3,28,R,ugm-3,7.2,R,ugm-3
04-01-2006,08:00,0.6,R,ugm-3,6.5,R,ugm-3,7.4,R,ugm-3,38,R,ugm-3,7.2,R,ugm-3
04-01-2006,09:00,0.8,R,ugm-3,8.8,R,ugm-3,9.9,R,ugm-3,36,R,ugm-3,6.7,R,ugm-3
04-01-2006,10:00,0.6,R,ugm-3,2.7,R,ugm-3,3.6,R,ugm-3,42,R,ugm-3,4.3,R,ugm-3
04-01-2006,11:00,1.3,R,ugm-3,4.2,R,ugm-3,6.1,R,ugm-3,46,R,ugm-3,5.6,R,ugm-3
04-01-2006,12:00,1.1,R,ugm-3,4.6,R,ugm-3,6.3,R,ugm-3,44,R,ugm-3,5.9,R,ugm-3
04-01-2006,13:00,1.6,R,ugm-3,4.6,R,ugm-3,7.1,R,ugm-3,46,R,ugm-3,2.7,R,ugm-3
04-01-2006,14:00,1.3,R,ugm-3,8.0,R,ugm-3,9.9,R,ugm-3,40,R,ugm-3,2.4,R,ugm-3
04-01-2006,15:00,1.6,R,ugm-3,12.4,R,ugm-3,14.9,R,ugm-3,34,R,ugm-3,2.7,R,ugm-3
04-01-2006,16:00,1.0,R,ugm-3,9.6,R,ugm-3,11.1,R,ugm-3,36,R,ugm-3,3.2,R,ugm-3
04-01-2006,17:00,0.8,R,ugm-3,13.8,R,ugm-3,14.9,R,ugm-3,30,R,ugm-3,4.0,R,ugm-3
04-01-2006,18:00,1.1,R,ugm-3,29.4,R,ugm-3,31.1,R,ugm-3,16,R,ugm-3,8.2,R,ugm-3
04-01-2006,19:00,1.3,R,ugm-3,39.9,R,ugm-3,41.8,R,ugm-3,6,R,ugm-3,8.0,R,ugm-3
04-01-2006,20:00,4.1,R,ugm-3,43.4,R,ugm-3,49.7,R,ugm-3,4,R,ugm-3,4.3,R,ugm-3
04-01-2006,21:00,1.1,R,ugm-3,22.5,R,ugm-3,24.3,R,ugm-3,16,R,ugm-3,2.9,R,ugm-3
04-01-2006,22:00,0.8,R,ugm-3,18.7,R,ugm-3,19.9,R,ugm-3,14,R,ugm-3,2.7,R,ugm-3
04-01-2006,23:00,0.8,R,ugm-3,13.4,R,ugm-3,14.5,R,ugm-3,18,R,ugm-3,2.1,R,ugm-3
04-01-2006,24:00,0.8,R,ugm-3,20.2,R,ugm-3,21.4,R,ugm-3,14,R,ugm-3,6.9,R,ugm-3
05-01-2006,01:00,1.6,R,ugm-3,24.6,R,ugm-3,27.1,R,ugm-3,10,R,ugm-3,10.1,R,ugm-3
05-01-2006,02:00,1.5,R,ugm-3,23.7,R,ugm-3,26.0,R,ugm-3,8,R,ugm-3,8.5,R,ugm-3
05-01-2006,03:00,0.8,R,ugm-3,16.6,R,ugm-3,17.8,R,ugm-3,14,R,ugm-3,9.0,R,ugm-3
05-01-2006,04:00,0.6,R,ugm-3,22.0,R,ugm-3,22.9,R,ugm-3,10,R,ugm-3,9.3,R,ugm-3
05-01-2006,05:00,0.5,R,ugm-3,16.0,R,ugm-3,16.8,R,ugm-3,14,R,ugm-3,5.9,R,ugm-3
05-01-2006,06:00,0.6,R,ugm-3,6.7,R,ugm-3,7.6,R,ugm-3,26,R,ugm-3,6.1,R,ugm-3
05-01-2006,07:00,1.0,R,ugm-3,11.1,R,ugm-3,12.6,R,ugm-3,24,R,ugm-3,4.5,R,ugm-3
05-01-2006,08:00,0.6,R,ugm-3,9.6,R,ugm-3,10.5,R,ugm-3,26,R,ugm-3,6.7,R,ugm-3
05-01-2006,09:00,0.5,R,ugm-3,7.1,R,ugm-3,7.8,R,ugm-3,30,R,ugm-3,1.3,R,ugm-3
05-01-2006,10:00,0.8,R,ugm-3,11.3,R,ugm-3,12.4,R,ugm-3,24,R,ugm-3,2.9,R,ugm-3
05-01-2006,11:00,1.6,R,ugm-3,9.9,R,ugm-3,12.4,R,ugm-3,26,R,ugm-3,4.3,R,ugm-3
05-01-2006,12:00,,,,,,,,,,,,,,,
05-01-2006,13:00,,,,,,,,,,,,,,,
05-01-2006,14:00,1.3,R,ugm-3,5.5,R,ugm-3,7.4,R,ugm-3,26,R,ugm-3,10.1,R,ugm-3
05-01-2006,15:00,1.3,R,ugm-3,4.4,R,ugm-3,6.3,R,ugm-3,32,R,ugm-3,4.3,R,ugm-3
05-01-2006,16:00,1.4,R,ugm-3,13.6,R,ugm-3,15.7,R,ugm-3,26,R,ugm-3,4.3,R,ugm-3
05-01-2006,17:00,0.8,R,ugm-3,11.3,R,ugm-3,12.4,R,ugm-3,26,R,ugm-3,4.8,R,ugm-3
05-01-2006,18:00,0.8,R,ugm-3,12.2,R,ugm-3,13.4,R,ugm-3,26,R,ugm-3,5.3,R,ugm-3
05-01-2006,19:00,0.6,R,ugm-3,18.1,R,ugm-3,19.1,R,ugm-3,20,R,ugm-3,5.6,R,ugm-3
05-01-2006,20:00,0.6,R,ugm-3,13.2,R,ugm-3,14.1,R,ugm-3,24,R,ugm-3,2.9,R,ugm-3
05-01-2006,21:00,0.5,R,ugm-3,8.0,R,ugm-3,8.8,R,ugm-3,28,R,ugm-3,4.5,R,ugm-3
05-01-2006,22:00,0.6,R,ugm-3,6.9,R,ugm-3,7.8,R,ugm-3,26,R,ugm-3,4.3,R,ugm-3
05-01-2006,23:00,0.6,R,ugm-3,10.7,R,ugm-3,11.7,R,ugm-3,22,R,ugm-3,6.7,R,ugm-3
05-01-2006,24:00,0.6,R,ugm-3,11.3,R,ugm-3,12.2,R,ugm-3,22,R,ugm-3,4.8,R,ugm-3
06-01-2006,01:00,0.6,R,ugm-3,14.9,R,ugm-3,15.9,R,ugm-3,18,R,ugm-3,2.9,R,ugm-3
06-01-2006,02:00,0.6,R,ugm-3,3.4,R,ugm-3,4.4,R,ugm-3,24,R,ugm-3,3.5,R,ugm-3
06-01-2006,03:00,0.5,R,ugm-3,3.4,R,ugm-3,4.2,R,ugm-3,28,R,ugm-3,1.3,R,ugm-3
06-01-2006,04:00,0.6,R,ugm-3,1.7,R,ugm-3,2.7,R,ugm-3,28,R,ugm-3,2.1,R,ugm-3
06-01-2006,05:00,0.6,R,ugm-3,2.7,R,ugm-3,3.6,R,ugm-3,28,R,ugm-3,2.9,R,ugm-3
06-01-2006,06:00,0.5,R,ugm-3,8.0,R,ugm-3,8.8,R,ugm-3,20,R,ugm-3,5.1,R,ugm-3
06-01-2006,07:00,0.6,R,ugm-3,6.9,R,ugm-3,7.8,R,ugm-3,20,R,ugm-3,6.9,R,ugm-3
06-01-2006,08:00,0.8,R,ugm-3,10.5,R,ugm-3,11.7,R,ugm-3,16,R,ugm-3,7.4,R,ugm-3
06-01-2006,09:00,0.6,R,ugm-3,13.9,R,ugm-3,14.9,R,ugm-3,12,R,ugm-3,7.7,R,ugm-3
06-01-2006,10:00,3.0,R,ugm-3,18.7,R,ugm-3,23.3,R,ugm-3,6,R,ugm-3,12.8,R,ugm-3
06-01-2006,11:00,8.6,R,ugm-3,23.7,R,ugm-3,36.9,R,ugm-3,2,R,ugm-3,12.2,R,ugm-3
06-01-2006,12:00,12.4,R,ugm-3,22.9,R,ugm-3,41.8,R,ugm-3,4,R,ugm-3,13.6,R,ugm-3
06-01-2006,13:00,9.8,R,ugm-3,21.6,R,ugm-3,36.5,R,ugm-3,6,R,ugm-3,9.6,R,ugm-3
06-01-2006,14:00,6.6,R,ugm-3,22.2,R,ugm-3,32.3,R,ugm-3,6,R,ugm-3,10.1,R,ugm-3
06-01-2006,15:00,7.3,R,ugm-3,21.8,R,ugm-3,32.9,R,ugm-3,6,R,ugm-3,9.0,R,ugm-3
06-01-2006,16:00,3.5,R,ugm-3,21.8,R,ugm-3,27.1,R,ugm-3,6,R,ugm-3,8.8,R,ugm-3
06-01-2006,17:00,1.4,R,ugm-3,21.2,R,ugm-3,23.3,R,ugm-3,6,R,ugm-3,6.9,R,ugm-3
06-01-2006,18:00,0.8,R,ugm-3,18.7,R,ugm-3,19.9,R,ugm-3,8,R,ugm-3,5.3,R,ugm-3
06-01-2006,19:00,1.3,R,ugm-3,20.6,R,ugm-3,22.5,R,ugm-3,6,R,ugm-3,4.3,R,ugm-3
06-01-2006,20:00,4.1,R,ugm-3,24.8,R,ugm-3,31.1,R,ugm-3,4,R,ugm-3,4.0,R,ugm-3
06-01-2006,21:00,3.9,R,ugm-3,27.3,R,ugm-3,33.2,R,ugm-3,2,R,ugm-3,6.4,R,ugm-3
06-01-2006,22:00,1.6,R,ugm-3,16.8,R,ugm-3,19.3,R,ugm-3,6,R,ugm-3,5.3,R,ugm-3
06-01-2006,23:00,1.0,R,ugm-3,13.2,R,ugm-3,14.7,R,ugm-3,8,R,ugm-3,7.2,R,ugm-3
06-01-2006,24:00,0.6,R,ugm-3,10.7,R,ugm-3,11.7,R,ugm-3,10,R,ugm-3,4.0,R,ugm-3
07-01-2006,01:00,0.0,R,ugm-3,7.6,R,ugm-3,7.6,R,ugm-3,10,R,ugm-3,5.6,R,ugm-3
07-01-2006,02:00,0.3,R,ugm-3,9.9,R,ugm-3,10.3,R,ugm-3,8,R,ugm-3,4.3,R,ugm-3
07-01-2006,03:00,1.0,R,ugm-3,15.9,R,ugm-3,17.4,R,ugm-3,6,R,ugm-3,3.5,R,ugm-3
07-01-2006,04:00,2.6,R,ugm-3,22.0,R,ugm-3,26.0,R,ugm-3,2,R,ugm-3,4.3,R,ugm-3
07-01-2006,05:00,0.8,R,ugm-3,15.3,R,ugm-3,16.4,R,ugm-3,4,R,ugm-3,3.7,R,ugm-3
07-01-2006,06:00,0.5,R,ugm-3,9.4,R,ugm-3,10.1,R,ugm-3,8,R,ugm-3,4.3,R,ugm-3
07-01-2006,07:00,0.1,R,ugm-3,4.6,R,ugm-3,4.8,R,ugm-3,10,R,ugm-3,4.3,R,ugm-3
07-01-2006,08:00,0.0,R,ugm-3,7.4,R,ugm-3,7.4,R,ugm-3,6,R,ugm-3,4.3,R,ugm-3
07-01-2006,09:00,0.6,R,ugm-3,10.1,R,ugm-3,11.1,R,ugm-3,6,R,ugm-3,4.8,R,ugm-3
07-01-2006,10:00,1.8,R,ugm-3,10.9,R,ugm-3,13.6,R,ugm-3,6,R,ugm-3,9.0,R,ugm-3
07-01-2006,11:00,2.3,R,ugm-3,9.2,R,ugm-3,12.6,R,ugm-3,8,R,ugm-3,9.0,R,ugm-3
07-01-2006,12:00,4.5,R,ugm-3,10.7,R,ugm-3,17.6,R,ugm-3,8,R,ugm-3,9.0,R,ugm-3
07-01-2006,13:00,3.3,R,ugm-3,10.9,R,ugm-3,15.9,R,ugm-3,10,R,ugm-3,8.5,R,ugm-3
07-01-2006,14:00,1.6,R,ugm-3,5.5,R,ugm-3,8.0,R,ugm-3,14,R,ugm-3,4.0,R,ugm-3
07-01-2006,15:00,1.4,R,ugm-3,9.7,R,ugm-3,11.8,R,ugm-3,12,R,ugm-3,4.5,R,ugm-3
07-01-2006,16:00,0.4,R,ugm-3,7.8,R,ugm-3,8.4,R,ugm-3,14,R,ugm-3,4.3,R,ugm-3
07-01-2006,17:00,0.6,R,ugm-3,13.8,R,ugm-3,14.7,R,ugm-3,8,R,ugm-3,4.0,R,ugm-3
07-01-2006,18:00,1.0,R,ugm-3,17.0,R,ugm-3,18.5,R,ugm-3,4,R,ugm-3,4.3,R,ugm-3
07-01-2006,19:00,0.6,R,ugm-3,13.4,R,ugm-3,14.3,R,ugm-3,6,R,ugm-3,3.7,R,ugm-3
07-01-2006,20:00,0.1,R,ugm-3,13.6,R,ugm-3,13.8,R,ugm-3,8,R,ugm-3,5.6,R,ugm-3
07-01-2006,21:00,2.5,R,ugm-3,18.3,R,ugm-3,22.2,R,ugm-3,4,R,ugm-3,10.4,R,ugm-3
07-01-2006,22:00,1.6,R,ugm-3,19.3,R,ugm-3,21.8,R,ugm-3,4,R,ugm-3,8.2,R,ugm-3
07-01-2006,23:00,0.0,R,ugm-3,12.4,R,ugm-3,12.4,R,ugm-3,8,R,ugm-3,4.0,R,ugm-3
07-01-2006,24:00,1.4,R,ugm-3,18.5,R,ugm-3,20.6,R,ugm-3,4,R,ugm-3,8.8,R,ugm-3
08-01-2006,01:00,5.9,R,ugm-3,20.2,R,ugm-3,29.2,R,ugm-3,0,R,ugm-3,12.2,R,ugm-3
08-01-2006,02:00,1.9,R,ugm-3,18.3,R,ugm-3,21.2,R,ugm-3,2,R,ugm-3,7.2,R,ugm-3
08-01-2006,03:00,0.1,R,ugm-3,10.5,R,ugm-3,10.7,R,ugm-3,14,R,ugm-3,8.5,R,ugm-3
08-01-2006,04:00,0.0,R,ugm-3,6.3,R,ugm-3,6.3,R,ugm-3,20,R,ugm-3,6.1,R,ugm-3
08-01-2006,05:00,0.4,R,ugm-3,13.8,R,ugm-3,14.3,R,ugm-3,10,R,ugm-3,5.9,R,ugm-3
08-01-2006,06:00,0.1,R,ugm-3,13.8,R,ugm-3,13.9,R,ugm-3,14,R,ugm-3,11.7,R,ugm-3
08-01-2006,07:00,0.0,R,ugm-3,11.7,R,ugm-3,11.7,R,ugm-3,18,R,ugm-3,12.0,R,ugm-3
08-01-2006,08:00,0.0,R,ugm-3,7.8,R,ugm-3,7.8,R,ugm-3,22,R,ugm-3,10.9,R,ugm-3
08-01-2006,09:00,0.1,R,ugm-3,10.5,R,ugm-3,10.7,R,ugm-3,16,R,ugm-3,10.1,R,ugm-3
08-01-2006,10:00,2.0,R,ugm-3,12.0,R,ugm-3,15.1,R,ugm-3,10,R,ugm-3,10.1,R,ugm-3
08-01-2006,11:00,3.8,R,ugm-3,13.2,R,ugm-3,18.9,R,ugm-3,8,R,ugm-3,11.4,R,ugm-3
08-01-2006,12:00,5.0,R,ugm-3,14.7,R,ugm-3,22.3,R,ugm-3,8,R,ugm-3,14.6,R,ugm-3
08-01-2006,13:00,3.6,R,ugm-3,13.8,R,ugm-3,19.3,R,ugm-3,8,R,ugm-3,12.5,R,ugm-3
08-01-2006,14:00,3.5,R,ugm-3,14.1,R,ugm-3,19.5,R,ugm-3,10,R,ugm-3,12.0,R,ugm-3
08-01-2006,15:00,2.6,R,ugm-3,13.8,R,ugm-3,17.8,R,ugm-3,10,R,ugm-3,8.2,R,ugm-3
08-01-2006,16:00,1.3,R,ugm-3,12.2,R,ugm-3,14.1,R,ugm-3,10,R,ugm-3,6.7,R,ugm-3
08-01-2006,17:00,0.4,R,ugm-3,12.8,R,ugm-3,13.4,R,ugm-3,10,R,ugm-3,8.0,R,ugm-3
08-01-2006,18:00,0.4,R,ugm-3,13.4,R,ugm-3,13.9,R,ugm-3,10,R,ugm-3,6.7,R,ugm-3
08-01-2006,19:00,0.0,R,ugm-3,14.7,R,ugm-3,14.7,R,ugm-3,8,R,ugm-3,5.9,R,ugm-3
08-01-2006,20:00,0.1,R,ugm-3,7.8,R,ugm-3,8.0,R,ugm-3,14,R,ugm-3,5.9,R,ugm-3
08-01-2006,21:00,0.0,R,ugm-3,2.3,R,ugm-3,2.3,R,ugm-3,24,R,ugm-3,4.0,R,ugm-3
08-01-2006,22:00,0.0,R,ugm-3,4.6,R,ugm-3,4.6,R,ugm-3,20,R,ugm-3,5.1,R,ugm-3
08-01-2006,23:00,0.0,R,ugm-3,5.3,R,ugm-3,5.3,R,ugm-3,20,R,ugm-3,9.0,R,ugm-3
08-01-2006,24:00,0.0,R,ugm-3,4.0,R,ugm-3,4.0,R,ugm-3,20,R,ugm-3,7.2,R,ugm-3
09-01-2006,01:00,0.9,R,ugm-3,3.8,R,ugm-3,5.2,R,ugm-3,16,R,ugm-3,8.2,R,ugm-3
09-01-2006,02:00,0.6,R,ugm-3,3.8,R,ugm-3,4.8,R,ugm-3,18,R,ugm-3,6.1,R,ugm-3
09-01-2006,03:00,0.6,R,ugm-3,3.2,R,ugm-3,4.2,R,ugm-3,18,R,ugm-3,5.3,R,ugm-3
09-01-2006,04:00,0.8,R,ugm-3,2.5,R,ugm-3,3.6,R,ugm-3,20,R,ugm-3,4.0,R,ugm-3
09-01-2006,05:00,0.6,R,ugm-3,8.8,R,ugm-3,9.7,R,ugm-3,14,R,ugm-3,5.9,R,ugm-3
09-01-2006,06:00,0.8,R,ugm-3,9.4,R,ugm-3,10.5,R,ugm-3,14,R,ugm-3,4.5,R,ugm-3
09-01-2006,07:00,0.6,R,ugm-3,7.8,R,ugm-3,8.8,R,ugm-3,12,R,ugm-3,4.3,R,ugm-3
09-01-2006,08:00,0.6,R,ugm-3,11.3,R,ugm-3,12.2,R,ugm-3,6,R,ugm-3,4.3,R,ugm-3
09-01-2006,09:00,1.0,R,ugm-3,11.7,R,ugm-3,13.2,R,ugm-3,4,R,ugm-3,4.3,R,ugm-3
09-01-2006,10:00,3.0,R,ugm-3,14.5,R,ugm-3,19.1,R,ugm-3,4,R,ugm-3,4.8,R,ugm-3
09-01-2006,11:00,7.3,R,ugm-3,17.8,R,ugm-3,28.8,R,ugm-3,2,R,ugm-3,8.2,R,ugm-3
09-01-2006,12:00,10.4,R,ugm-3,19.9,R,ugm-3,35.7,R,ugm-3,2,R,ugm-3,10.6,R,ugm-3
09-01-2006,13:00,10.9,R,ugm-3,20.1,R,ugm-3,36.7,R,ugm-3,4,R,ugm-3,8.5,R,ugm-3
09-01-2006,14:00,5.0,R,ugm-3,17.6,R,ugm-3,25.2,R,ugm-3,8,R,ugm-3,3.2,R,ugm-3
09-01-2006,15:00,4.5,R,ugm-3,22.2,R,ugm-3,29.0,R,ugm-3,14,R,ugm-3,14.1,R,ugm-3
09-01-2006,16:00,5.0,R,ugm-3,27.7,R,ugm-3,35.3,R,ugm-3,12,R,ugm-3,4.8,R,ugm-3
09-01-2006,17:00,1.1,R,ugm-3,21.0,R,ugm-3,22.7,R,ugm-3,10,R,ugm-3,7.2,R,ugm-3
09-01-2006,18:00,1.0,R,ugm-3,22.9,R,ugm-3,24.4,R,ugm-3,6,R,ugm-3,10.9,R,ugm-3
09-01-2006,19:00,0.5,R,ugm-3,9.6,R,ugm-3,10.3,R,ugm-3,18,R,ugm-3,7.7,R,ugm-3
09-01-2006,20:00,0.8,R,ugm-3,13.9,R,ugm-3,15.1,R,ugm-3,18,R,ugm-3,12.8,R,ugm-3
09-01-2006,21:00,0.8,R,ugm-3,17.4,R,ugm-3,18.5,R,ugm-3,12,R,ugm-3,9.3,R,ugm-3
09-01-2006,22:00,0.8,R,ugm-3,21.0,R,ugm-3,22.2,R,ugm-3,10,R,ugm-3,9.6,R,ugm-3
09-01-2006,23:00,0.8,R,ugm-3,18.0,R,ugm-3,19.1,R,ugm-3,12,R,ugm-3,7.4,R,ugm-3
09-01-2006,24:00,0.6,R,ugm-3,15.1,R,ugm-3,16.0,R,ugm-3,16,R,ugm-3,6.1,R,ugm-3
10-01-2006,01:00,0.6,R,ugm-3,16.6,R,ugm-3,17.6,R,ugm-3,14,R,ugm-3,8.0,R,ugm-3
10-01-2006,02:00,0.6,R,ugm-3,14.3,R,ugm-3,15.3,R,ugm-3,24,R,ugm-3,8.5,R,ugm-3
10-01-2006,03:00,1.0,R,ugm-3,10.9,R,ugm-3,12.4,R,ugm-3,30,R,ugm-3,8.0,R,ugm-3
10-01-2006,04:00,0.6,R,ugm-3,12.8,R,ugm-3,13.8,R,ugm-3,28,R,ugm-3,8.8,R,ugm-3
10-01-2006,05:00,0.6,R,ugm-3,11.3,R,ugm-3,12.2,R,ugm-3,26,R,ugm-3,7.7,R,ugm-3
10-01-2006,06:00,0.5,R,ugm-3,8.0,R,ugm-3,8.8,R,ugm-3,30,R,ugm-3,6.1,R,ugm-3
10-01-2006,07:00,0.5,R,ugm-3,7.8,R,ugm-3,8.6,R,ugm-3,30,R,ugm-3,6.1,R,ugm-3
10-01-2006,08:00,0.8,R,ugm-3,8.4,R,ugm-3,9.6,R,ugm-3,28,R,ugm-3,5.9,R,ugm-3
10-01-2006,09:00,0.5,R,ugm-3,8.0,R,ugm-3,8.8,R,ugm-3,30,R,ugm-3,4.5,R,ugm-3
10-01-2006,10:00,0.6,R,ugm-3,9.0,R,ugm-3,9.9,R,ugm-3,34,R,ugm-3,5.6,R,ugm-3
10-01-2006,11:00,0.6,R,ugm-3,10.7,R,ugm-3,11.7,R,ugm-3,34,R,ugm-3,6.4,R,ugm-3
10-01-2006,12:00,1.1,R,ugm-3,12.4,R,ugm-3,14.1,R,ugm-3,34,R,ugm-3,8.2,R,ugm-3
10-01-2006,13:00,0.8,R,ugm-3,9.7,R,ugm-3,10.9,R,ugm-3,40,R,ugm-3,6.7,R,ugm-3
10-01-2006,14:00,0.5,R,ugm-3,8.8,R,ugm-3,9.6,R,ugm-3,42,R,ugm-3,6.1,R,ugm-3
10-01-2006,15:00,0.6,R,ugm-3,8.8,R,ugm-3,9.7,R,ugm-3,42,R,ugm-3,4.8,R,ugm-3
10-01-2006,16:00,0.6,R,ugm-3,8.6,R,ugm-3,9.6,R,ugm-3,42,R,ugm-3,5.9,R,ugm-3
10-01-2006,17:00,0.6,R,ugm-3,7.8,R,ugm-3,8.8,R,ugm-3,42,R,ugm-3,4.8,R,ugm-3
10-01-2006,18:00,0.6,R,ugm-3,7.3,R,ugm-3,8.2,R,ugm-3,42,R,ugm-3,5.9,R,ugm-3
10-01-2006,19:00,0.6,R,ugm-3,6.9,R,ugm-3,7.8,R,ugm-3,44,R,ugm-3,5.6,R,ugm-3
10-01-2006,20:00,0.6,R,ugm-3,4.6,R,ugm-3,5.5,R,ugm-3,46,R,ugm-3,5.9,R,ugm-3
10-01-2006,21:00,0.6,R,ugm-3,2.9,R,ugm-3,3.8,R,ugm-3,50,R,ugm-3,7.2,R,ugm-3
10-01-2006,22:00,0.5,R,ugm-3,1.7,R,ugm-3,2.5,R,ugm-3,54,R,ugm-3,4.8,R,ugm-3
10-01-2006,23:00,0.6,R,ugm-3,1.5,R,ugm-3,2.5,R,ugm-3,58,R,ugm-3,5.6,R,ugm-3
10-01-2006,24:00,0.8,R,ugm-3,0.2,R,ugm-3,1.3,R,ugm-3,60,R,ugm-3,5.1,R,ugm-3
11-01-2006,01:00,1.3,R,ugm-3,2.5,R,ugm-3,4.4,R,ugm-3,56,R,ugm-3,7.2,R,ugm-3
11-01-2006,02:00,1.3,R,ugm-3,2.5,R,ugm-3,4.4,R,ugm-3,54,R,ugm-3,7.2,R,ugm-3
11-01-2006,03:00,1.3,R,ugm-3,2.7,R,ugm-3,4.6,R,ugm-3,54,R,ugm-3,8.8,R,ugm-3
11-01-2006,04:00,1.0,R,ugm-3,2.3,R,ugm-3,3.8,R,ugm-3,56,R,ugm-3,6.4,R,ugm-3
11-01-2006,05:00,1.3,R,ugm-3,1.3,R,ugm-3,3.2,R,ugm-3,60,R,ugm-3,6.4,R,ugm-3
11-01-2006,06:00,1.3,R,ugm-3,0.8,R,ugm-3,2.7,R,ugm-3,64,R,ugm-3,6.4,R,ugm-3
11-01-2006,07:00,1.3,R,ugm-3,2.3,R,ugm-3,4.2,R,ugm-3,58,R,ugm-3,7.7,R,ugm-3
11-01-2006,08:00,1.3,R,ugm-3,7.4,R,ugm-3,9.4,R,ugm-3,50,R,ugm-3,9.0,R,ugm-3
11-01-2006,09:00,1.3,R,ugm-3,9.6,R,ugm-3,11.5,R,ugm-3,48,R,ugm-3,8.2,R,ugm-3
11-01-2006,10:00,2.0,R,ugm-3,17.2,R,ugm-3,20.2,R,ugm-3,40,R,ugm-3,14.1,R,ugm-3
11-01-2006,11:00,3.0,R,ugm-3,17.6,R,ugm-3,22.2,R,ugm-3,40,R,ugm-3,11.4,R,ugm-3
11-01-2006,12:00,2.9,R,ugm-3,15.9,R,ugm-3,20.2,R,ugm-3,40,R,ugm-3,12.5,R,ugm-3
11-01-2006,13:00,2.3,R,ugm-3,7.6,R,ugm-3,11.1,R,ugm-3,50,R,ugm-3,7.7,R,ugm-3
11-01-2006,14:00,1.3,R,ugm-3,8.2,R,ugm-3,10.1,R,ugm-3,50,R,ugm-3,7.4,R,ugm-3
11-01-2006,15:00,1.8,R,ugm-3,8.4,R,ugm-3,11.1,R,ugm-3,46,R,ugm-3,7.2,R,ugm-3
11-01-2006,16:00,1.1,R,ugm-3,11.1,R,ugm-3,12.8,R,ugm-3,44,R,ugm-3,7.4,R,ugm-3
11-01-2006,17:00,1.3,R,ugm-3,13.8,R,ugm-3,15.7,R,ugm-3,42,R,ugm-3,6.7,R,ugm-3
11-01-2006,18:00,1.3,R,ugm-3,15.5,R,ugm-3,17.4,R,ugm-3,36,R,ugm-3,10.6,R,ugm-3
11-01-2006,19:00,1.3,R,ugm-3,10.1,R,ugm-3,12.0,R,ugm-3,42,R,ugm-3,10.1,R,ugm-3
11-01-2006,20:00,1.3,R,ugm-3,7.1,R,ugm-3,9.0,R,ugm-3,40,R,ugm-3,8.2,R,ugm-3
11-01-2006,21:00,1.3,R,ugm-3,3.4,R,ugm-3,5.3,R,ugm-3,46,R,ugm-3,5.9,R,ugm-3
11-01-2006,22:00,1.3,R,ugm-3,4.0,R,ugm-3,5.9,R,ugm-3,44,R,ugm-3,4.8,R,ugm-3
11-01-2006,23:00,1.3,R,ugm-3,2.5,R,ugm-3,4.4,R,ugm-3,48,R,ugm-3,5.6,R,ugm-3
11-01-2006,24:00,1.3,R,ugm-3,2.3,R,ugm-3,4.2,R,ugm-3,48,R,ugm-3,6.1,R,ugm-3
12-01-2006,01:00,0.6,R,ugm-3,0.8,R,ugm-3,1.7,R,ugm-3,52,R,ugm-3,3.5,R,ugm-3
12-01-2006,02:00,0.6,R,ugm-3,2.3,R,ugm-3,3.2,R,ugm-3,46,R,ugm-3,5.3,R,ugm-3
12-01-2006,03:00,0.6,R,ugm-3,2.5,R,ugm-3,3.4,R,ugm-3,48,R,ugm-3,4.8,R,ugm-3
12-01-2006,04:00,0.6,R,ugm-3,1.0,R,ugm-3,1.9,R,ugm-3,54,R,ugm-3,5.1,R,ugm-3
12-01-2006,05:00,0.6,R,ugm-3,4.2,R,ugm-3,5.2,R,ugm-3,56,R,ugm-3,8.5,R,ugm-3
12-01-2006,06:00,0.6,R,ugm-3,8.6,R,ugm-3,9.6,R,ugm-3,48,R,ugm-3,8.0,R,ugm-3
12-01-2006,07:00,0.5,R,ugm-3,13.2,R,ugm-3,13.9,R,ugm-3,34,R,ugm-3,6.1,R,ugm-3
12-01-2006,08:00,0.6,R,ugm-3,16.0,R,ugm-3,17.0,R,ugm-3,36,R,ugm-3,4.0,R,ugm-3
12-01-2006,09:00,0.8,R,ugm-3,14.5,R,ugm-3,15.7,R,ugm-3,42,R,ugm-3,8.2,R,ugm-3
12-01-2006,10:00,1.6,R,ugm-3,16.2,R,ugm-3,18.7,R,ugm-3,42,R,ugm-3,8.0,R,ugm-3
12-01-2006,11:00,1.9,R,ugm-3,17.0,R,ugm-3,19.9,R,ugm-3,42,R,ugm-3,5.6,R,ugm-3
12-01-2006,12:00,2.5,R,ugm-3,18.0,R,ugm-3,21.8,R,ugm-3,38,R,ugm-3,6.7,R,ugm-3
12-01-2006,13:00,2.6,R,ugm-3,19.1,R,ugm-3,23.1,R,ugm-3,38,R,ugm-3,7.7,R,ugm-3
12-01-2006,14:00,4.1,R,ugm-3,25.8,R,ugm-3,32.1,R,ugm-3,28,R,ugm-3,9.3,R,ugm-3
12-01-2006,15:00,3.0,R,ugm-3,23.1,R,ugm-3,27.7,R,ugm-3,30,R,ugm-3,10.1,R,ugm-3
12-01-2006,16:00,1.6,R,ugm-3,28.5,R,ugm-3,30.9,R,ugm-3,24,R,ugm-3,12.2,R,ugm-3
12-01-2006,17:00,1.3,R,ugm-3,31.7,R,ugm-3,33.6,R,ugm-3,18,R,ugm-3,13.8,R,ugm-3
12-01-2006,18:00,1.4,R,ugm-3,29.6,R,ugm-3,31.7,R,ugm-3,18,R,ugm-3,10.4,R,ugm-3
12-01-2006,19:00,1.0,R,ugm-3,27.7,R,ugm-3,29.2,R,ugm-3,20,R,ugm-3,14.6,R,ugm-3
12-01-2006,20:00,1.6,R,ugm-3,29.4,R,ugm-3,31.9,R,ugm-3,16,R,ugm-3,15.4,R,ugm-3
12-01-2006,21:00,1.3,R,ugm-3,29.8,R,ugm-3,31.7,R,ugm-3,14,R,ugm-3,14.1,R,ugm-3
12-01-2006,22:00,0.8,R,ugm-3,22.5,R,ugm-3,23.7,R,ugm-3,22,R,ugm-3,10.1,R,ugm-3
12-01-2006,23:00,1.0,R,ugm-3,20.8,R,ugm-3,22.3,R,ugm-3,22,R,ugm-3,8.5,R,ugm-3
12-01-2006,24:00,0.6,R,ugm-3,16.4,R,ugm-3,17.4,R,ugm-3,26,R,ugm-3,10.4,R,ugm-3
13-01-2006,01:00,0.6,R,ugm-3,11.1,R,ugm-3,12.0,R,ugm-3,34,R,ugm-3,8.2,R,ugm-3
13-01-2006,02:00,0.6,R,ugm-3,13.8,R,ugm-3,14.7,R,ugm-3,24,R,ugm-3,10.1,R,ugm-3
13-01-2006,03:00,0.6,R,ugm-3,6.7,R,ugm-3,7.6,R,ugm-3,32,R,ugm-3,6.4,R,ugm-3
13-01-2006,04:00,0.5,R,ugm-3,4.6,R,ugm-3,5.3,R,ugm-3,36,R,ugm-3,5.3,R,ugm-3
13-01-2006,05:00,0.6,R,ugm-3,8.6,R,ugm-3,9.6,R,ugm-3,28,R,ugm-3,8.0,R,ugm-3
13-01-2006,06:00,0.6,R,ugm-3,6.9,R,ugm-3,7.8,R,ugm-3,28,R,ugm-3,6.4,R,ugm-3
13-01-2006,07:00,0.6,R,ugm-3,6.3,R,ugm-3,7.3,R,ugm-3,30,R,ugm-3,4.3,R,ugm-3
13-01-2006,08:00,0.8,R,ugm-3,9.9,R,ugm-3,11.1,R,ugm-3,28,R,ugm-3,10.9,R,ugm-3
13-01-2006,09:00,0.4,R,ugm-3,7.8,R,ugm-3,8.4,R,ugm-3,32,R,ugm-3,5.6,R,ugm-3
13-01-2006,10:00,0.6,R,ugm-3,7.4,R,ugm-3,8.4,R,ugm-3,36,R,ugm-3,6.7,R,ugm-3
13-01-2006,11:00,0.8,R,ugm-3,9.9,R,ugm-3,11.1,R,ugm-3,36,R,ugm-3,6.1,R,ugm-3
13-01-2006,12:00,1.1,R,ugm-3,9.7,R,ugm-3,11.5,R,ugm-3,34,R,ugm-3,4.8,R,ugm-3
13-01-2006,13:00,0.5,R,ugm-3,10.3,R,ugm-3,11.1,R,ugm-3,34,R,ugm-3,4.8,R,ugm-3
13-01-2006,14:00,1.1,R,ugm-3,14.7,R,ugm-3,16.4,R,ugm-3,26,R,ugm-3,5.9,R,ugm-3
13-01-2006,15:00,0.5,R,ugm-3,13.0,R,ugm-3,13.8,R,ugm-3,30,R,ugm-3,5.3,R,ugm-3
13-01-2006,16:00,0.6,R,ugm-3,12.6,R,ugm-3,13.6,R,ugm-3,30,R,ugm-3,4.5,R,ugm-3
13-01-2006,17:00,0.6,R,ugm-3,12.8,R,ugm-3,13.8,R,ugm-3,34,R,ugm-3,5.3,R,ugm-3
13-01-2006,18:00,0.6,R,ugm-3,14.5,R,ugm-3,15.5,R,ugm-3,28,R,ugm-3,7.4,R,ugm-3
13-01-2006,19:00,0.5,R,ugm-3,13.2,R,ugm-3,13.9,R,ugm-3,30,R,ugm-3,6.9,R,ugm-3
13-01-2006,20:00,0.6,R,ugm-3,14.3,R,ugm-3,15.3,R,ugm-3,30,R,ugm-3,9.6,R,ugm-3
13-01-2006,21:00,0.8,R,ugm-3,14.7,R,ugm-3,15.9,R,ugm-3,30,R,ugm-3,9.0,R,ugm-3